Weather History for Cecil Field, FL

Change the Weather History Date:

Wednesday, July 10, 2013

  Actual Average (KJAX) Record (KJAX)
Temperature  
Mean Temperature 78 °F 82 °F  
Max Temperature 91 °F 92 °F 102 °F (1879)
Min Temperature 66 °F 72 °F 65 °F (2000)
Degree Days  
Heating Degree Days 0 0  
Month to date heating degree days 0  
Since 1 June heating degree days 0  
Since 1 July heating degree days 0  
Cooling Degree Days 14 17  
Month to date cooling degree days 170  
Year to date cooling degree days 1103  
Since 1 June cooling degree days 619  
Growing Degree Days 28 (Base 50)    
Moisture  
Dew Point 71 °F    
Average Humidity 87    
Maximum Humidity 100    
Minimum Humidity 52    
Precipitation  
Precipitation 0.00 in 0.21 in 1.45 in (1915)
Month to date precipitation 2.12  
Year to date precipitation 24.13  
Snow  
Snow 0.00 in 0.00 in 0.00 in (2002)
Month to date snowfall 0.0  
Since 1 June snowfall 0.0  
Since 1 July snowfall 0.0  
Snow Depth -    
Sea Level Pressure  
Sea Level Pressure 30.07 in    
Wind  
Wind Speed 1 mph (SE)    
Max Wind Speed 8 mph    
Max Gust Speed -    
Visibility 9 miles    
Events Rain , Thunderstorm    
T = Trace of Precipitation, MM = Missing Value Source: NWS Daily Summary

Daily Weather History Graph

Daily Weather History Graph

Search for Another Location

Airport:

Trip Planner

Search our weather history database for the weather conditions in past years. The results will help you decide how hot, cold, wet, or windy it might be!

Date:

Astronomy

Jul. 10, 2013 Rise Set
Actual Time 6:33 AM EDT 8:32 PM EDT
Civil Twilight 6:06 AM EDT 8:59 PM EDT
Nautical Twilight 5:33 AM EDT 9:31 PM EDT
Astronomical Twilight 4:58 AM EDT 10:06 PM EDT
Moon 8:40 AM EDT (7/10) 9:56 PM EDT (7/10)
Length of Visible Light 14h 52m
Length of Day
13h 58m
Waxing Crescent, 5% of the Moon is Illuminated
Jul 10
Waxing Crescent
Jul 15
First Quarter
Jul 22
Full
Jul 29
Last Quarter
Aug 6
New

Hourly Weather History & Observations

Time (EDT) Temp. Heat Index Dew Point Humidity Pressure Visibility Wind Dir Wind Speed Gust Speed Precip Events Conditions
12:15 AM 71.6 °F - 71.6 °F 100% 30.12 in 10.0 mi Calm Calm - N/A   Clear
12:35 AM 71.6 °F - 71.6 °F 100% 30.13 in 10.0 mi Calm Calm - N/A   Clear
12:55 AM 69.8 °F - 69.8 °F 100% 30.12 in 10.0 mi Calm Calm - N/A   Clear
1:15 AM 69.8 °F - 69.8 °F 100% 30.12 in 10.0 mi Calm Calm - N/A   Clear
1:35 AM 68.0 °F - 68.0 °F 100% 30.12 in 10.0 mi Calm Calm - N/A   Clear
1:55 AM 69.8 °F - 69.8 °F 100% 30.11 in 10.0 mi Calm Calm - N/A   Clear
2:15 AM 68.0 °F - 68.0 °F 100% 30.11 in 9.0 mi Calm Calm - N/A   Clear
2:35 AM 68.0 °F - 68.0 °F 100% 30.10 in 7.0 mi Calm Calm - N/A   Clear
2:55 AM 68.0 °F - 68.0 °F 100% 30.10 in 8.0 mi Calm Calm - N/A   Clear
3:15 AM 68.0 °F - 68.0 °F 100% 30.10 in 9.0 mi Calm Calm - N/A   Clear
3:55 AM 68.0 °F - 68.0 °F 100% 30.10 in 5.0 mi Calm Calm - N/A   Clear
4:15 AM 68.0 °F - 68.0 °F 100% 30.10 in 5.0 mi Calm Calm - N/A   Clear
4:35 AM 66.2 °F - 66.2 °F 100% 30.10 in 7.0 mi Calm Calm - N/A   Clear
4:55 AM 68.0 °F - 68.0 °F 100% 30.10 in 8.0 mi Calm Calm - N/A   Clear
5:15 AM 66.2 °F - 66.2 °F 100% 30.09 in 6.0 mi Calm Calm - N/A   Clear
5:35 AM 66.2 °F - 66.2 °F 100% 30.09 in 7.0 mi Calm Calm - N/A   Clear
5:55 AM 66.2 °F - 66.2 °F 100% 30.09 in 10.0 mi Calm Calm - N/A   Clear
6:15 AM 66.2 °F - 66.2 °F 100% 30.09 in 5.0 mi Calm Calm - N/A   Scattered Clouds
6:35 AM 66.2 °F - 66.2 °F 100% 30.09 in 8.0 mi Calm Calm - N/A   Scattered Clouds
6:50 AM 68.0 °F - 68.0 °F 100% 30.09 in 7.0 mi Calm Calm - N/A   Scattered Clouds
7:50 AM 71.6 °F - 71.6 °F 100% 30.10 in 7.0 mi Calm Calm - N/A   Clear
8:50 AM 77.0 °F - 75.2 °F 94% 30.11 in 7.0 mi Calm Calm - N/A   Scattered Clouds
9:50 AM 80.6 °F 85.4 °F 73.4 °F 79% 30.11 in 7.0 mi SE 8.1 mph - N/A   Mostly Cloudy
10:50 AM 84.2 °F 89.6 °F 71.6 °F 66% 30.11 in 7.0 mi Variable 3.5 mph - N/A   Scattered Clouds
11:50 AM 86.0 °F 91.8 °F 71.6 °F 62% 30.11 in 7.0 mi SSE 4.6 mph - N/A   Mostly Cloudy
12:50 PM 89.6 °F 96.2 °F 71.6 °F 55% 30.09 in 7.0 mi Variable 4.6 mph - N/A   Mostly Cloudy
1:50 PM 89.6 °F 96.2 °F 71.6 °F 55% 30.06 in 10.0 mi South 4.6 mph - N/A   Scattered Clouds
2:50 PM 89.6 °F 96.2 °F 71.6 °F 55% 30.03 in 10.0 mi Variable 5.8 mph - N/A   Scattered Clouds
3:50 PM 91.4 °F 98.4 °F 71.6 °F 52% 30.01 in 10.0 mi South 5.8 mph - N/A   Mostly Cloudy
4:50 PM 87.8 °F 93.8 °F 71.6 °F 58% 30.01 in 10.0 mi SSE 6.9 mph - N/A   Mostly Cloudy
5:50 PM 86.0 °F 93.4 °F 73.4 °F 66% 30.00 in 10.0 mi East 8.1 mph - N/A   Mostly Cloudy
6:50 PM 84.2 °F 90.9 °F 73.4 °F 70% 29.98 in 10.0 mi East 8.1 mph - N/A   Scattered Clouds
7:50 PM 84.2 °F 89.6 °F 71.6 °F 66% 29.99 in 10.0 mi ESE 5.8 mph - N/A   Partly Cloudy
8:15 PM 80.6 °F 85.4 °F 73.4 °F 79% 29.99 in 10.0 mi Calm Calm - N/A   Clear
8:35 PM 80.6 °F 85.4 °F 73.4 °F 79% 30.00 in 10.0 mi Calm Calm - N/A   Clear
8:55 PM 77.0 °F - 73.4 °F 89% 30.00 in 10.0 mi Calm Calm - N/A   Partly Cloudy
9:15 PM 78.8 °F - 73.4 °F 83% 30.01 in 10.0 mi Calm Calm - N/A   Partly Cloudy
9:35 PM 78.8 °F - 73.4 °F 83% 30.02 in 10.0 mi Calm Calm - N/A   Partly Cloudy
9:55 PM 78.8 °F - 73.4 °F 83% 30.02 in 10.0 mi Calm Calm - N/A   Scattered Clouds
10:15 PM 78.8 °F - 73.4 °F 83% 30.03 in 10.0 mi Calm Calm - N/A   Mostly Cloudy
10:35 PM 77.0 °F - 73.4 °F 89% 30.04 in 10.0 mi Calm Calm - N/A   Mostly Cloudy
10:55 PM 77.0 °F - 75.2 °F 94% 30.05 in 10.0 mi Calm Calm - N/A   Mostly Cloudy
11:15 PM 77.0 °F - 73.4 °F 89% 30.05 in 10.0 mi Calm Calm - N/A   Mostly Cloudy
11:35 PM 77.0 °F - 73.4 °F 89% 30.05 in 10.0 mi Calm Calm - N/A Thunderstorm Thunderstorm
11:55 PM 77.0 °F - 73.4 °F 89% 30.05 in 8.0 mi East 4.6 mph - N/A Rain , Thunderstorm Light Rain